Tracking 34138 objects as of 17-May-2026
HD Live streaming from Space Station
objects crossing your sky now

STARLINK-1300

Track STARLINK-1300 now!
10-day predictions
STARLINK-1300 is classified as:


NORAD ID: 45374
Int'l Code: 2020-019Q
Perigee: 470.0 km
Apogee: 475.6 km
Inclination: 53.2 °
Period: 93.9 minutes
Semi major axis: 6843 km
RCS: Unknown
Launch date: March 18, 2020
Source: United States (US)
Launch site: AIR FORCE EASTERN TEST RANGE (AFETR)
Your satellite tracking list
Your tracking list is empty




NASA's NSSDC Master Catalog

Two Line Element Set (TLE):
1 45374U 20019Q   26136.70962557  .00020629  00000-0  63958-3 0  9997
2 45374  53.1578 208.8994 0004067   7.7633 352.3431 15.33408324340176
Source of the keplerian elements: AFSPC